Location: Belfast
(54.5830°N, 5.9330°W)
Time: 22:20:23
(UTC+01:00)

ISS - Visible Passes

Search period start: 22 May 2017 00:00
Search period end: 01 June 2017 00:00
Orbit: 402 x 408 km, 51.6° (Epoch: 22 May)

Date Brightness Start Highest point End Pass type
(mag) Time Alt. Az. Time Alt. Az. Time Alt. Az.
22 May -3.2 01:06:43 33° SSE 01:06:43 33° SSE 01:09:37 10° E visible
22 May -3.7 02:39:35 10° WSW 02:42:48 51° S 02:46:00 10° ESE visible
22 May -3.0 04:16:00 10° W 04:18:58 31° SSW 04:21:55 10° SE visible
23 May -2.7 00:15:12 25° SE 00:15:12 25° SE 00:17:32 10° E visible
23 May -3.7 01:47:42 10° WSW 01:50:50 49° S 01:54:02 10° E visible
23 May -3.4 03:23:57 10° W 03:27:03 39° SSW 03:30:09 10° SE visible
23 May -2.4 23:20:26 10° SSW 23:22:53 19° SSE 23:25:19 10° ESE visible
24 May -3.6 00:55:43 10° WSW 00:58:53 44° S 01:02:02 10° E visible
24 May -3.6 02:31:56 10° W 02:35:06 46° S 02:38:17 10° ESE visible
24 May -2.5 04:08:36 10° W 04:11:10 21° SSW 04:13:43 10° SSE visible
24 May -2.0 22:29:19 10° S 22:31:04 14° SE 22:32:48 10° ESE visible
25 May -3.3 00:03:51 10° SW 00:06:55 37° SSE 00:10:00 10° E visible
25 May -3.7 01:39:55 10° W 01:43:08 50° S 01:46:21 10° ESE visible
25 May -2.9 03:16:24 10° W 03:19:16 28° SSW 03:22:09 10° SE visible
25 May -3.0 23:12:05 10° SW 23:14:59 29° SSE 23:17:54 10° E visible
26 May -3.7 00:47:55 10° WSW 00:51:08 50° S 00:54:21 10° E visible
26 May -3.3 02:24:17 10° W 02:27:21 36° SSW 02:30:24 10° SE visible
26 May -2.0 04:01:33 10° WSW 04:03:11 13° SW 04:04:49 10° S visible
26 May -3.6 23:55:57 10° WSW 23:59:08 46° S 00:02:19 10° E visible
27 May -3.5 01:32:13 10° W 01:35:22 43° SSW 01:38:31 10° ESE visible
27 May -2.4 03:08:58 10° WSW 03:11:21 19° SSW 03:13:44 10° SSE visible
27 May -3.4 23:04:01 10° SW 23:07:08 40° SSE 23:10:15 10° E visible
28 May -3.7 00:40:09 10° W 00:43:21 49° S 00:46:33 10° ESE visible
28 May -2.8 02:16:40 10° W 02:19:28 25° SSW 02:19:48 25° SSW visible
28 May -3.7 23:48:06 10° WSW 23:51:20 51° S 23:54:32 10° ESE visible
29 May -3.1 01:24:30 10° W 01:27:31 33° SSW 01:28:24 28° SSE visible
29 May -3.6 22:56:04 10° WSW 22:59:17 48° S 23:02:28 10° E visible
30 May -3.4 00:32:23 10° W 00:35:30 41° SSW 00:37:29 19° SE visible
30 May -1.7 02:09:16 10° WSW 02:10:07 14° WSW 02:10:07 14° WSW visible
30 May -3.6 23:40:16 10° W 23:43:28 47° S 23:46:39 10° ESE visible
31 May -2.5 01:16:51 10° W 01:19:22 23° SSW 01:19:22 23° SSW visible
31 May -3.6 22:48:10 10° WSW 22:51:24 51° S 22:54:37 10° ESE visible
